Address 0x8c38e29b5377553253c4cd7e3cd1e3508f7123a6

Overview

Balance:
0.00032149664 MATIC
My Name Tag:
Not Available

Txn Hash Method
Block
From
To
Value [Txn Fee]
0x781cfde77ea4d5bdfe9c5b0fd6e44a88da5bf352ca675ee355a49f06e30b0391Transfer263427432022-05-17 2:18:15199 days 17 hrs ago0x8c38e29b5377553253c4cd7e3cd1e3508f7123a6OUT0x87f70751d283d4d4b7cc16586e2e3afcf528ca7b5.249322 MATIC0.00017858.5
0x097d24851dd4c6a25a94f5f919a2304fce1b34768529d972f58af8e39ad2a6e2Transfer262796632022-05-10 23:27:52205 days 20 hrs ago0x8c38e29b5377553253c4cd7e3cd1e3508f7123a6OUT0x87f70751d283d4d4b7cc16586e2e3afcf528ca7b9.999821 MATIC0.000178501688.50008
0x1191c6041cf7bb8a91467ea52d320da58b77b7490f97b71095e23616cf2ed081Transfer262282022022-05-06 13:58:17210 days 5 hrs ago0x8c38e29b5377553253c4cd7e3cd1e3508f7123a6OUT0x87f70751d283d4d4b7cc16586e2e3afcf528ca7b9.95 MATIC0.000178501688.50008
[ Download CSV Export 
Latest 25 internal transaction
Parent Txn Hash Block From To Value
0xe04474338adf38660ea452f5ed55b18e7b0d415721d085022525b5a70a69e791263052392022-05-13 10:16:03203 days 9 hrs ago 0x7f092e65c688a509737fcd8d0998dd12208f52970x8c38e29b5377553253c4cd7e3cd1e3508f7123a60.2 MATIC
0x0f8388629f9786494d9b313209f8a43e36d620965dc39f89cf83a78649045829263039472022-05-13 7:17:43203 days 12 hrs ago 0x7f092e65c688a509737fcd8d0998dd12208f52970x8c38e29b5377553253c4cd7e3cd1e3508f7123a60.2 MATIC
0x91578e8754783f14e49e9c506992a107d3405e282deff7aa3de5e54f71a9c22f262933362022-05-12 7:32:56204 days 12 hrs ago 0x7f092e65c688a509737fcd8d0998dd12208f52970x8c38e29b5377553253c4cd7e3cd1e3508f7123a60.2 MATIC
0x8431e3803634e1d5f2b8f23aa5a179d190cc4472ff9785e95b35065a4d2482bb262921502022-05-12 4:35:32204 days 15 hrs ago 0x7f092e65c688a509737fcd8d0998dd12208f52970x8c38e29b5377553253c4cd7e3cd1e3508f7123a60.2 MATIC
0x0fd2b3feb69b960a78f74ee212c2c89f8ed9d616421c479126cdf243f9bad964262912362022-05-12 2:19:43204 days 17 hrs ago 0x7f092e65c688a509737fcd8d0998dd12208f52970x8c38e29b5377553253c4cd7e3cd1e3508f7123a60.2 MATIC
0x61c8b6fc675802ec1236dd1d9a157ce2688511c7d20303601ca8b4eef2413b3c262900142022-05-11 23:38:24204 days 20 hrs ago 0x7f092e65c688a509737fcd8d0998dd12208f52970x8c38e29b5377553253c4cd7e3cd1e3508f7123a60.2 MATIC
0x9ac8a59d8f73a396ac6ccabbf8d8af8aa3669ea9368d9ab68fe74eb58b0f2b7f262896422022-05-11 22:52:18204 days 20 hrs ago 0x7f092e65c688a509737fcd8d0998dd12208f52970x8c38e29b5377553253c4cd7e3cd1e3508f7123a60.2 MATIC
0x80713ed59a9cbb268870ab6ffa59ce8d78cf0a538b6c2e998d6264882331d4e5262892972022-05-11 22:05:23204 days 21 hrs ago 0x7f092e65c688a509737fcd8d0998dd12208f52970x8c38e29b5377553253c4cd7e3cd1e3508f7123a60.2 MATIC
0x0c1ccfb81a3a3cd93707a90feb63976d0919af62dac5cfa26245d448553473fe262889042022-05-11 21:15:47204 days 22 hrs ago 0x7f092e65c688a509737fcd8d0998dd12208f52970x8c38e29b5377553253c4cd7e3cd1e3508f7123a60.2 MATIC
0x3a698c2aa6c9701f15e0a6b410e685ec7f1704659e7df2302b198c5487eba614262883862022-05-11 20:10:39204 days 23 hrs ago 0x7f092e65c688a509737fcd8d0998dd12208f52970x8c38e29b5377553253c4cd7e3cd1e3508f7123a60.2 MATIC
0xbea209857956d1d7a6d2a03fc286afd161e33747dd58ca75b0c21448bbbf86c8262879022022-05-11 19:05:51205 days 33 mins ago 0x7f092e65c688a509737fcd8d0998dd12208f52970x8c38e29b5377553253c4cd7e3cd1e3508f7123a60.2 MATIC
0x771ffef4523dbeac9bea11c8999884b1838e27acfa4e700457ee72605dc8cea8262873002022-05-11 17:46:42205 days 1 hr ago 0x7f092e65c688a509737fcd8d0998dd12208f52970x8c38e29b5377553253c4cd7e3cd1e3508f7123a60.2 MATIC
0x05b60348792cc707e75041b1e724cd10eff6c3bfd70f5dcf546968526dc9c8a8262866672022-05-11 16:27:42205 days 3 hrs ago 0x7f092e65c688a509737fcd8d0998dd12208f52970x8c38e29b5377553253c4cd7e3cd1e3508f7123a60.2 MATIC
0xbd238bfcdf29790c8b111de7770612b065cfa71cb6cfc6b30c404ed7cd990c89262859922022-05-11 15:01:41205 days 4 hrs ago 0x7f092e65c688a509737fcd8d0998dd12208f52970x8c38e29b5377553253c4cd7e3cd1e3508f7123a60.2 MATIC
0x90c9f1f2ed126e4bae697a1fdaceff5b011eeedc0dd383377b7ba01dd4423138262852272022-05-11 13:20:39205 days 6 hrs ago 0x7f092e65c688a509737fcd8d0998dd12208f52970x8c38e29b5377553253c4cd7e3cd1e3508f7123a60.2 MATIC
0xb74de6ff6b929bf0831acdf7f6e391f17f67e92d2c73a605c9efab27a91078eb262845882022-05-11 11:55:19205 days 7 hrs ago 0x7f092e65c688a509737fcd8d0998dd12208f52970x8c38e29b5377553253c4cd7e3cd1e3508f7123a60.2 MATIC
0xfa65064892d552aeab644f9bca4f07601201777735cc7e0fdc52a9c16a55f92e262837652022-05-11 9:47:46205 days 9 hrs ago 0x7f092e65c688a509737fcd8d0998dd12208f52970x8c38e29b5377553253c4cd7e3cd1e3508f7123a60.2 MATIC
0xc3d9c722ac18daea047f85a842ee50dcf9df7b6a7d63f70f472a0423d3ecca6a262833912022-05-11 8:46:10205 days 10 hrs ago 0x7f092e65c688a509737fcd8d0998dd12208f52970x8c38e29b5377553253c4cd7e3cd1e3508f7123a60.2 MATIC
0x5e4737ddb63ccf1a5de19ecfa7e00676f9a747e74880b9ca534e96fb1ce5e25c262830512022-05-11 7:58:25205 days 11 hrs ago 0x7f092e65c688a509737fcd8d0998dd12208f52970x8c38e29b5377553253c4cd7e3cd1e3508f7123a60.2 MATIC
0x434b44a3b5212476648af6700499588adc9538f8738fd6e1aadaabb515118feb262827062022-05-11 7:04:05205 days 12 hrs ago 0x7f092e65c688a509737fcd8d0998dd12208f52970x8c38e29b5377553253c4cd7e3cd1e3508f7123a60.2 MATIC
0xe0afbe8852eb5e75ac4fbca6ac702c0157068b6b56c251c9f11216efeb3c211a262819292022-05-11 5:03:28205 days 14 hrs ago 0x7f092e65c688a509737fcd8d0998dd12208f52970x8c38e29b5377553253c4cd7e3cd1e3508f7123a60.2 MATIC
0x3dc3ceeb04abceb860ba67de56c4a6e4706525692fc0d168e2ecce5b4763a132262815382022-05-11 4:08:37205 days 15 hrs ago 0x7f092e65c688a509737fcd8d0998dd12208f52970x8c38e29b5377553253c4cd7e3cd1e3508f7123a60.2 MATIC
0x6bc75a71b666ab1052b818bfa26d8e670bd9891871f88aec62612f39cd78aa59262810482022-05-11 2:57:44205 days 16 hrs ago 0x7f092e65c688a509737fcd8d0998dd12208f52970x8c38e29b5377553253c4cd7e3cd1e3508f7123a60.2 MATIC
0x6eac960d250f4df76e6f38cd42bcdcf7c9330fc705d54baee89f61babe3aff11262806132022-05-11 1:48:17205 days 17 hrs ago 0x7f092e65c688a509737fcd8d0998dd12208f52970x8c38e29b5377553253c4cd7e3cd1e3508f7123a60.2 MATIC
0xd20e952449f766ddd2845db15c23f24ddfee92448374c72f795f383ae00dc0df262802682022-05-11 0:58:12205 days 18 hrs ago 0x7f092e65c688a509737fcd8d0998dd12208f52970x8c38e29b5377553253c4cd7e3cd1e3508f7123a60.2 MATIC
[ Download CSV Export 
Loading

Contract Name:
0 MATIC

Compiler Version
0

Optimization Enabled:
0 MATIC

Other Settings:
-NA-
Block Transaction Gas Used Reward
Age Block Fee Address BC Fee Address Voting Power Jailed Incoming
Block Uncle Number Difficulty Gas Used Reward
Loading